Regional Weather Roundup
Issued by NWS

Home | Current Version | Previous Version | Text Only | Print | Product List | Glossary Off
Versions: 1 2 3 4 5 6 7 8 9 10 11 12 13 14 15 16 17 18 19 20 21 22 23 24 25 26 27 28 29 30 31 32 33 34 35 36 37 38 39 40 41 42 43 44 45 46 47 48 49 50

000
ASUS45 KTFX 270610
RWRMT
MONTANA REGIONAL WEATHER ROUNDUP
NATIONAL WEATHER SERVICE GREAT FALLS MT
1200 AM MDT SUN MAY 27 2018

NOTE: "FAIR" INDICATES FEW OR NO CLOUDS BELOW 12000 FEET WITH NO
SIGNIFICANT WEATHER AND/OR OBSTRUCTIONS TO VISIBILITY.

MTZ001>007-043-270700-
WEST OF THE DIVIDE

CITY           SKY/WX    TMP DP  RH WIND       PRES   REMARKS
KALISPELL      FAIR      55  52  89 CALM      29.98R
MISSOULA       FAIR      57  47  69 N6        30.02R
BUTTE          FAIR      48  41  76 E3        30.08R
MULLAN PASS    FAIR      44  42  93 NW7       30.11S
ANACONDA         N/A     46  41  81 NW3       30.07R
DEER LODGE       N/A     46  45  93 CALM      30.08R
HAMILTON         N/A     61  46  59 MISG      30.02R
PLAINS           N/A     52  47  83 CALM      30.02R
RONAN            N/A     57  54  88 SE5       30.01S
$$

MTZ008-052>055-270700-
SOUTHWEST MONTANA

CITY           SKY/WX    TMP DP  RH WIND       PRES   REMARKS
BOZEMAN        FAIR      58  49  72 VRB3      29.97F
DILLON         MOCLDY    52  43  71 S7        30.03R
ENNIS          CLOUDY    57  43  58 NE12      30.04R
W YELLOWSTONE  CLOUDY    57  43  58 N5G15     30.03R
TWIN BRIDGES     N/A     57  39  51 N5        29.99R
$$

MTZ009-010-012-014-046-048-049-054-270700-
EAST SLOPES AND CENTRAL MONTANA

CITY           SKY/WX    TMP DP  RH WIND       PRES   REMARKS
CUT BANK       FAIR      55  47  74 W14       29.94S
GREAT FALLS    MOCLDY    62  49  62 NW7       29.95R
HELENA         FAIR      59  48  67 W5        29.98R
CHOTEAU          N/A     61  46  59 S6        29.99R
WHITE SULPHUR    N/A     54  50  87 CALM      29.99S
$$

MTZ011-013-016-021-045-047-050-051-270700-
NORTH CENTRAL MONTANA

CITY           SKY/WX    TMP DP  RH WIND       PRES   REMARKS
HAVRE          FAIR      62  48  60 W5        29.86S
LEWISTOWN      FAIR      60  47  61 S9        29.92F
N BAR RANCH    MOCLDY    57  46  67 W13G20    29.97F
CHINOOK          N/A     66  48  52 W8        29.85
$$

MTZ017>020-022>027-061-062-270700-
NORTHEAST MONTANA

CITY           SKY/WX    TMP DP  RH WIND       PRES   REMARKS
GLASGOW        LGT RAIN  69  59  70 S14       29.78R
GLENDIVE       TSTM      62  58  86 N18       29.75R
JORDAN           N/A     65  57  75 NW8       29.80R
MALTA          CLEAR     72  48  43 N14       29.78R
SIDNEY         TSTM      64  58  80 N21G28    29.78R
WOLF POINT     LGT RAIN  69  56  62 SW7       29.75R
PLENTYWOOD       N/A     66  55  68 MISG      29.75F
POPLAR           N/A     66  57  72 MISG      29.71F
SCOBEY           N/A     67  47  48 SE3       29.77R
$$

MTZ028>42-056>058-270700-
SOUTHCENTRAL AND SOUTHEAST MONTANA

CITY           SKY/WX    TMP DP  RH WIND       PRES   REMARKS
BAKER          FAIR      70  60  70 E12       29.70R
BILLINGS       FAIR      61  51  70 NW26G38   29.86S
LIVINGSTON     FAIR      57  48  72 E9        29.97F
MILES CITY     CLOUDY    71  58  63 N23G30    29.73R
BIG TIMBER     CLEAR     55  50  82 N9G16     29.98F
EKALAKA          N/A     73  59  61 SE13      29.70F
LAUREL           N/A     61  50  67 NW23G29   29.89S
$$

REGIONAL REPORTS...DAKOTAS

CITY           SKY/WX    TMP DP  RH WIND       PRES   REMARKS
WILLISTON      LGT RAIN  67  57  70 NW32G52   29.73R
MINOT          FAIR      74  51  44 SE7       29.71R
DICKINSON      FAIR      69  55  60 E8        29.68F
BEACH          FAIR      72  59  64 N16G23    29.77R
CROSBY         MOCLDY    66  59  77 NW24G36   29.79R THUNDER
TIOGA          FAIR      66  54  63 CALM      29.74R
WATFORD CITY   FAIR      72  50  46 E13       29.66F THUNDER
BISMARCK       FAIR      71  55  56 SE3       29.72S
GRAND FORKS    FAIR      61  57  87 NE5       29.74R
FARGO          FAIR      65  47  52 CALM      29.73S
BUFFALO SD       N/A     71  59  65 S10       29.62F
RAPID CITY     FAIR      67  59  75 SE8       29.72S
$$

REGIONAL REPORTS...WYOMING/IDAHO/WASHINGTON

CITY           SKY/WX    TMP DP  RH WIND       PRES   REMARKS
GILLETTE       MOCLDY    69  59  70 W18       29.80F
SHERIDAN       CLOUDY    69  56  62 NW9       29.84S
BUFFALO WY     LGT RAIN  62  53  72 NW16G28   29.91R
CODY           FAIR      61  43  51 N14       29.96R
YELLOWSTONE LA   N/A     41  35  79 CALM      30.11R
IDAHO FALLS    CLOUDY    53  48  83 SW14      29.99R
SALMON         FAIR      51  46  83 E3        30.00R
BOISE          MOCLDY    56  52  86 CALM      29.94R
SPOKANE        MOCLDY    60  44  55 SW12      30.03R
$$

REGIONAL REPORTS...ALBERTA

CITY           SKY/WX    TMP DP  RH WIND       PRES   REMARKS
CALGARY        PTCLDY    64  21  19 NW12G18   29.86R
EDMONTON       PTCLDY    55  34  44 N6        29.90R
FORT MCMURRAY  CLOUDY    52  39  62 S9        29.76R
HIGH LEVEL     CLOUDY    52  43  71 E7        29.68R
LETHBRIDGE     CLEAR     61  45  55 SW16G22   29.85R
LLOYDMINSTER   PTCLDY    48  37  66 W6        29.85R
MEDICINE HAT   CLEAR     57  48  72 SW3       29.84S
PEACE RIVER    PTCLDY    54  30  40 W13G22    29.83R
PINCHER CREEK    N/A     57  45  62 MISG      29.91S
WATERTON GATE    N/A     57  45  62 SW17G26     N/A
$$

REGIONAL REPORTS...SASKATCHEWAN

CITY           SKY/WX    TMP DP  RH WIND       PRES   REMARKS
CORONACH         N/A     68  54  60 SW1         N/A
CYPRESS HILLS    N/A     59  48  67 N5          N/A
ESTEVAN        LGT RAIN  73  54  49 SW31G44   29.75R
MOOSE JAW        N/A     64  57  77 W15         N/A
PRINCE ALBERT  PTCLDY    54  54 100 W3        29.79R
REGINA         MOCLDY    61  57  88 W7        29.72R
ROCKGLEN         N/A     66  54  63 N15G22      N/A
SASKATOON      PTCLDY    54  54 100 NW7       29.81R
SWIFT CURRENT  CLEAR     59  55  88 N9G18     29.81F
VAL MARIE        N/A     63  52  67 N6          N/A
$$



USA.gov is the U.S. government's official web portal to all federal, state and local government web resources and services.